sat.trackr.live / text

‹ back to catalog

STARLINK-31697

NORAD 59583 · 2024-076V

PAYLOAD ACTIVE UNKNOWN

§ Identity

Operator
Country
US
Launch date
2024-04-23
Launch site
AFETR
Launch vehicle
Mass (kg)
RCS (m²)

Purposes: comms

External: N2YO · Heavens-Above · Gunter

§ Orbital elements

Epoch: 2026-05-25T02:50:20.794272Z

Period
94.27 min
Inclination
42.9994°
Eccentricity
0.0001167
Mean motion
15.27575524 rev/d
Perigee alt
482.3 km
Apogee alt
483.9 km
Semi-major
6,861.2 km
B*
6.1183e-5
RAAN
297.1709°
Arg perigee
274.3858°
Mean anomaly
85.6861°
Rev number
11,810

§ Raw data

STARLINK-316971 59583U 24076V   26145.11829623  .00001422  00000+0  61183-4 0  99902 59583  42.9994 297.1709 0001167 274.3858  85.6861 15.27575524118104

JSON: /api/v1/satellites/59583 · /tle

For live sub-satellite position, see the globe view (requires WebGL).

§ Visibility from observer

Set your observer location to see the next 7 days of passes ≥ 10°. The values pass through the URL so the page stays shareable.

No JS? Fill the form by hand. The geolocation button needs JavaScript.